{"data":{"norad_id":61633,"intl_designator":"2024-191N","name":"STARLINK-32396","alt_names":[],"object_type":"PAYLOAD","status":"ACTIVE","operator":null,"country":"US","launch_date":"2024-10-23","launch_site_code":"AFETR","launch_vehicle":null,"mission":null,"orbit_class":"UNKNOWN","rcs_meters":null,"size_class":null,"mass_kg":null,"dimensions":null,"purposes":["comms"],"wikipedia_slug":null,"has_3d_model":false,"image_url":null,"decayed_at":null,"tle_current":{"epoch":"2026-05-25T04:25:28.894080Z","epoch_age_seconds":55793,"freshness":"FRESH","line1":"1 61633U 24191N   26145.18436220  .00000510  00000+0  28056-4 0  9990","line2":"2 61633  43.0010  86.1071 0001137 266.4535  93.6187 15.27579986 89195","mean_motion":15.27579986,"eccentricity":0.0001137,"inclination_deg":43.001,"raan_deg":86.1071,"arg_perigee_deg":266.4535,"mean_anomaly_deg":93.6187,"bstar":2.8056e-5,"rev_number":8919,"period_min":94.26674957759,"perigee_km":482.2690210968,"apogee_km":483.82925482458,"semimajor_km":6861.1861379607,"source":"CELESTRAK","updated_at":"2026-05-25T13:38:19.408914Z"}}}